GSAT 6

导读

GSAT 6是印度空间研究组织(ISRO)研制的静止轨道通信卫星,于2015年8月27日成功发射。该卫星配备了S波段大型可展开天线,主要面向军事移动通信与民生通信服务,支持手持终端通信,可提升印度偏远区域的通信覆盖能力。作为印度国产GSAT系列通信卫星的重要成员,其设计寿命约9年,体现了印度自主发展航天通信技术的成果,增强了印度本土卫星通信的自主可控能力,为区域应急通信和战略通信提供支撑。

基本信息
目录编号:
40880
目录名称:
GSAT 6
国际标识:
2015-041A
轨道中心:
EARTH
卫星名称:
GSAT 6
卫星全名:
--
卫星状态:
在轨 (已飞行3951 天)
发射日期:
2015-08-27 UTC
国别 :
印度 (IN)
星等 :
--
轨道信息
数据来源 国际轨道数据 AOE轨道数据
星历时间 2026-06-20T17:47:59+0800
1天前
查看轨道信息
2026-06-21T12:00:00+0800
12小时前
查看轨道信息
半长轴 42164.784km 42164.953km
偏心率 0.0003242 0.000343
轨道倾角 1.927° 1.929°
近地点辐角 0.576° 3.638°
升交点赤经 82.556° 82.547°
平近点角 55.025° 325.722°
近地点 35772.977km 35772.353km
远地点 35800.317km 35801.279km
周期 1436.100分钟 1436.108分钟
每日圈数 1.002716 1.00271
详细信息
使用方式:
暂无
2D轨道图
3D轨道图
轨道高度分析图
轨道倾角分析图
轨道综合分析图
查看轨道综合分析图